Regional Weather Roundup
Issued by NWS

Home | Current Version | Previous Version | Text Only | Print | Product List | Glossary On
Versions: 1 2 3 4 5 6 7 8 9 10 11 12 13 14 15 16 17 18 19 20 21 22 23 24 25 26 27 28 29 30 31 32 33 34 35 36 37 38 39 40 41 42 43 44 45 46 47 48 49 50
117
ASUS43 KOAX 231302
RWRNE

WEATHER ROUNDUP FOR NEBRASKA
NATIONAL WEATHER SERVICE OMAHA NE
700 AM CST THU NOV 23 2017

NOTES: SATELLITE DATA IS BEING USED TO AUGMENT CLOUD COVER ABOVE
       12000 FEET.
       "FAIR" INDICATES FEW OR NO CLOUDS BELOW 12,000 FEET WITH NO
       SIGNIFICANT WEATHER AND/OR OBSTRUCTIONS TO VISIBILITY.


NEZ001>004-019>022-054>056-231400-
NEBRASKA PANHANDLE

CITY           SKY/WX    TMP DP  RH WIND       PRES   REMARKS
SCOTTSBLUFF    CLOUDY    36  33  89 N6        30.12S WCI  31
ALLIANCE       CLOUDY    31  31 100 W7        30.08F WCI  24
CHADRON        CLOUDY    33  32  96 VRB3      30.06F
KIMBALL        CLOUDY    40  35  83 W8        30.15F WCI  34
SIDNEY         CLOUDY    45  38  76 W12       30.13F
$$

NEZ057>060-069>072-079>082-231400-
SOUTHWEST NEBRASKA

CITY           SKY/WX    TMP DP  RH WIND       PRES   REMARKS
NORTH PLATTE   CLOUDY    29  28  96 NW5       30.08F WCI  24
IMPERIAL       CLOUDY    42  38  85 W7        30.12S
LEXINGTON      CLOUDY    38  34  85 W9        30.08R WCI  32
MCCOOK         CLOUDY    41  37  86 W12       30.09F
OGALLALA       CLOUDY    38  35  91 W6        30.11S WCI  33
$$

NEZ005>010-023>029-035>040-094-231400-
NORTH CENTRAL NEBRASKA

CITY           SKY/WX    TMP DP  RH WIND       PRES   REMARKS
VALENTINE      CLOUDY    39  36  89 SW8       30.01F WCI  33
AINSWORTH      CLOUDY    40  37  89 SW9       30.01F WCI  35
BROKEN BOW     CLOUDY    33  30  88 CALM      30.05S
O`NEILL        CLOUDY    39  37  91 SW6       30.00F WCI  35
ORD            CLOUDY    32  31  96 NW5       30.03F WCI  27
THEDFORD       CLOUDY    41  37  84 W3        30.05S
$$

NEZ041-046>049-061>064-073>077-083>087-231400-
SOUTH CENTRAL NEBRASKA

CITY           SKY/WX    TMP DP  RH WIND       PRES   REMARKS
GRAND ISLAND   CLOUDY    37  34  89 W7        30.05F WCI  32
AURORA         CLEAR     38  33  83 W8        30.04F WCI  32
HASTINGS       CLOUDY    38  32  79 W5        30.05F WCI  34
HEBRON         CLEAR     38  32  79 CALM      30.05S
HOLDREGE       CLOUDY    38  34  86 NW3       30.07S
KEARNEY        CLOUDY    38  33  82 W5        30.06  WCI  34
YORK           CLEAR     37  36  93 N3        30.04S
$$

NEZ011>018-030>034-042>045-231400-
NORTHEAST NEBRASKA

CITY           SKY/WX    TMP DP  RH WIND       PRES   REMARKS
NORFOLK        CLEAR     36  33  89 CALM      30.01S
ALBION         CLEAR     32  31  96 CALM      30.02F
BLAIR          CLOUDY    37  31  79 NW9       30.00R WCI  30
COLUMBUS       CLEAR     26  24  92 NW3       30.04S
FREMONT        CLOUDY    30  27  90 W6        30.02S WCI  24
TEKAMAH        CLOUDY    26  19  74 N7        30.01R WCI  18
WAYNE          CLOUDY    26  24  92 CALM      30.01S
$$

NEZ050>053-065>068-078-088>093-231400-
SOUTHEAST NEBRASKA

CITY           SKY/WX    TMP DP  RH WIND       PRES   REMARKS
LINCOLN        CLEAR     34  28  79 CALM      30.05R
OMAHA EPPLEY   CLOUDY    29  21  72 SE3       30.01R
BEATRICE       CLEAR     31  24  75 CALM      30.04R
FALLS CITY     CLOUDY    33  23  66 W3        30.02S
NEBRASKA CITY  CLOUDY    39  32  74 W8        30.01S WCI  34
PLATTSMOUTH    CLOUDY    37  31  78 NW9       30.01S WCI  31
$$

NEZ044-045-051>053-067-231400-
OMAHA AREA

CITY           SKY/WX    TMP DP  RH WIND       PRES   REMARKS
OMAHA EPPLEY   CLOUDY    29  21  72 SE3       30.01R
BLAIR          CLOUDY    37  31  79 NW9       30.00R WCI  30
FREMONT        CLOUDY    30  27  90 W6        30.02S WCI  24
MILLARD        CLOUDY    31  25  78 CALM      30.01S
OFFUTT AFB     CLOUDY    28  21  74 NW7       30.01R WCI  21
PLATTSMOUTH    CLOUDY    37  31  78 NW9       30.01S WCI  31
WAHOO          FAIR      36  31  83 NW5       30.02S WCI  32
$$




USA.gov is the U.S. government's official web portal to all federal, state and local government web resources and services.